Theta_e
296 292 290 296 299 303 307 304 308 317 323 322 320 318 321 323 322 323 325 324 326 327 329 334 336 337 337 341 339 333 337 341 340 340 338 338 337 337 340 341 343 345 348 349
294 290 296 298 300 300 300 299 307 322 324 322 319 318 321 321 321 321 323 325 326 325 327 329 334 338 339 340 340 337 341 340 342 342 339 340 338 337 339 342 343 347 347 350
293 296 300 298 297 296 295 294 311 314 323 322 317 312 316 322 323 322 323 329 326 325 325 329 333 337 340 339 339 340 342 341 342 343 341 340 339 339 339 340 342 347 347 349
296 301 300 297 296 295 291 301 310 320 315 305 315 298 304 316 318 320 321 326 324 327 327 330 333 336 338 339 341 341 341 341 340 344 340 339 337 334 337 338 341 345 348 349
298 300 298 296 298 300 297 304 317 320 311 300 305 300 302 314 314 317 320 324 327 326 327 330 334 337 339 340 340 341 341 340 341 343 342 340 336 337 335 337 341 342 343 348
300 304 302 301 303 304 304 300 297 297 296 289 295 302 297 308 315 318 322 323 327 326 330 331 336 337 338 340 340 341 342 340 341 342 341 342 338 337 338 335 339 341 342 344
298 299 301 304 299 300 297 292 286 286 286 288 295 299 299 306 317 321 322 324 327 326 327 329 332 334 335 336 339 341 341 339 342 342 341 339 339 339 338 338 338 339 340 341
291 292 299 303 299 296 293 292 287 284 284 289 295 292 304 314 319 326 326 325 328 325 326 330 331 333 335 335 339 340 340 340 342 343 342 342 341 340 340 340 340 341 342 342
290 294 302 303 302 301 294 290 293 287 287 288 292 303 309 316 319 323 324 325 325 327 327 329 331 333 336 337 338 341 340 341 341 343 343 341 343 343 341 340 341 341 342 345
296 292 298 301 302 300 297 299 293 291 286 284 294 299 299 308 314 320 320 322 325 327 328 326 331 332 335 338 339 340 342 341 341 343 343 343 342 346 344 342 341 342 343 344
297 294 296 298 294 294 296 293 293 293 292 289 289 296 307 309 311 316 318 323 323 325 327 329 331 333 335 338 338 339 342 341 342 342 342 343 342 343 345 343 342 342 344 346
298 293 291 293 299 299 297 294 293 290 288 290 291 294 307 312 315 317 319 322 324 328 329 330 331 332 334 336 336 337 340 342 342 344 343 342 343 343 343 344 344 346 345 346
299 291 288 291 294 295 294 294 295 293 292 292 291 294 310 315 316 317 320 321 321 324 325 329 329 330 334 336 336 338 341 343 344 345 343 343 343 343 342 343 344 345 346 345
305 290 290 288 291 292 291 295 295 293 290 290 293 297 303 312 315 319 322 322 320 324 327 325 327 328 330 334 338 340 343 346 345 344 344 343 344 344 344 343 344 344 344 344
296 290 291 290 295 294 295 296 298 292 292 292 293 300 302 308 314 318 322 324 324 323 323 325 326 326 328 330 332 339 340 345 346 344 343 343 344 343 343 341 344 345 344 344
292 288 289 289 295 297 296 300 301 300 298 299 300 299 308 311 311 316 320 323 322 323 324 324 326 326 327 331 333 334 338 340 344 343 342 340 338 340 342 342 342 344 344 344
292 291 289 287 295 294 291 296 299 300 300 300 295 299 311 311 311 311 316 320 320 321 320 321 322 324 325 330 332 334 334 336 339 341 341 337 336 334 337 340 341 343 343 343
293 292 290 289 290 285 295 300 303 301 305 306 302 306 312 311 311 315 319 319 321 321 317 318 318 320 321 324 328 330 335 334 337 339 339 339 336 335 337 336 339 340 341 341
298 292 288 287 285 290 297 302 301 298 297 309 307 311 316 317 315 314 320 321 320 321 318 319 324 324 324 328 327 331 333 334 335 336 336 337 339 335 334 336 339 341 337 335
298 294 292 288 285 285 294 302 307 304 294 310 311 312 316 315 305 308 318 319 320 322 323 321 322 323 323 325 327 326 328 328 330 333 335 336 335 336 337 340 340 338 338 329
294 292 289 289 287 291 299 306 309 295 296 308 312 312 314 311 310 311 318 320 321 321 321 321 321 317 320 322 326 323 328 327 329 328 335 333 334 334 333 332 331 328 325 322
295 291 289 290 288 288 309 309 302 304 306 310 312 310 311 311 316 319 319 319 320 318 319 320 319 319 320 322 325 326 326 328 328 328 328 334 332 328 326 324 324 323 320 318
295 296 294 296 295 303 309 307 310 311 310 310 310 312 313 318 320 321 319 318 318 317 318 319 319 318 319 321 326 324 325 328 326 326 325 324 323 323 322 321 319 318 317 316
303 304 301 301 302 306 310 312 313 314 313 314 311 313 316 317 321 319 318 317 317 316 316 316 318 317 317 320 323 324 325 326 325 323 322 321 318 319 322 322 321 320 319 317
304 305 302 302 307 311 314 316 315 316 317 317 317 315 316 318 319 318 318 317 316 315 316 316 315 316 317 320 321 324 324 323 322 322 321 319 318 316 312 304 309 316 311 317
305 301 299 299 310 307 311 316 318 315 313 317 319 320 316 315 318 320 316 316 317 314 314 314 316 317 319 320 321 322 323 323 322 321 320 319 318 315 314 312 306 301 302 304
Wind_Speed
3 4 7 11 6 3 2 3 7 7 8 6 11 6 8 10 6 8 7 6 11 14 9 12 14 13 12 9 9 9 11 8 6 3 3 1 3 2 3 4 4 6 4 4
6 5 11 2 4 4 5 5 4 2 8 5 4 13 2 9 9 8 8 7 8 10 14 14 15 16 15 14 12 11 11 9 8 5 3 3 3 2 2 2 4 5 3 5
6 8 4 5 5 4 5 5 7 7 5 2 4 7 6 5 5 6 6 4 5 11 17 15 17 17 15 14 14 13 11 10 9 8 4 3 3 2 2 1 2 4 4 5
6 6 5 5 7 6 8 8 11 7 6 5 7 6 6 6 8 9 11 11 9 8 15 16 17 17 18 16 13 13 11 12 8 8 6 6 5 4 4 3 3 4 4 5
8 6 4 6 12 8 10 6 11 8 7 3 1 3 8 2 6 12 15 13 12 12 13 18 18 19 19 15 15 13 9 8 7 8 8 6 5 4 2 2 4 3 4 5
8 4 5 10 5 8 6 7 10 6 4 2 6 7 7 4 7 5 12 14 12 11 9 15 16 16 15 14 13 12 10 9 8 9 9 10 9 6 4 3 3 4 4 3
4 5 4 4 4 4 8 8 3 3 3 8 2 4 9 6 6 9 11 16 15 13 11 12 16 15 14 15 14 12 12 11 10 9 9 8 9 8 8 6 5 5 3 2
5 6 6 3 5 8 2 8 8 5 4 5 1 3 6 6 7 5 3 8 8 9 12 12 17 16 14 15 15 15 14 13 12 12 10 8 8 6 6 6 5 4 4 5
6 7 4 5 5 9 4 2 4 9 1 3 2 3 7 8 8 8 6 5 7 7 12 14 14 17 16 15 14 15 15 16 14 13 10 9 8 8 7 8 5 5 5 4
5 2 3 2 5 4 7 8 5 4 3 3 3 2 5 3 5 7 8 3 6 8 9 8 9 14 15 13 15 17 16 17 13 13 12 10 9 8 8 6 7 7 6 6
6 5 5 4 3 6 2 2 7 6 5 6 1 6 6 6 4 1 6 6 4 5 6 8 7 5 10 14 15 16 14 14 14 13 12 11 10 9 8 8 8 7 6 7
5 6 3 4 2 3 2 3 5 6 6 1 3 6 4 6 6 5 1 4 4 8 6 5 4 4 4 7 7 9 14 15 16 12 13 13 10 10 10 10 9 7 7 6
8 3 4 7 8 5 6 1 5 5 4 5 7 6 1 4 4 6 6 2 3 5 6 6 6 6 6 6 7 10 10 12 10 7 6 9 10 12 13 11 9 7 7 8
10 4 8 7 7 4 1 2 3 6 4 5 6 4 3 2 4 2 5 2 3 4 4 4 5 7 6 6 7 9 9 10 9 8 12 14 13 13 12 9 8 7 7 8
6 5 5 3 3 2 2 3 2 5 5 6 5 8 5 8 7 4 2 4 5 3 1 1 0 3 4 5 3 3 5 11 13 14 16 13 12 10 7 7 9 9 7 8
4 1 2 1 1 2 2 2 7 4 5 5 5 1 4 4 2 4 5 5 5 4 4 0 3 4 3 4 5 4 6 9 8 13 14 11 8 8 9 8 9 8 9 8
5 7 4 1 2 4 3 3 4 3 2 6 4 7 5 6 8 4 3 2 2 2 3 4 4 4 5 5 4 4 4 4 9 12 13 13 10 8 7 7 6 10 11 8
8 6 3 3 2 1 8 4 3 7 3 1 2 4 5 4 3 5 5 6 5 4 2 3 3 5 6 6 6 6 5 6 9 10 12 15 13 10 7 5 7 7 7 10
6 7 4 6 4 4 1 4 5 5 3 3 4 2 4 4 5 6 9 7 6 5 3 3 4 3 5 6 7 6 6 7 9 12 12 11 12 11 11 11 10 8 7 5
7 7 7 4 5 7 8 2 5 4 3 7 6 7 7 6 1 8 8 5 6 6 4 3 3 3 3 5 7 5 5 6 8 11 13 12 11 12 11 9 9 7 8 8
4 4 7 4 3 6 7 4 3 5 9 8 7 7 6 6 6 2 7 5 3 2 3 3 1 3 4 5 6 4 5 9 9 13 14 11 9 6 5 6 7 10 11 11
7 8 4 4 4 4 7 5 6 9 1 5 5 4 5 1 4 6 6 5 4 4 1 1 1 2 3 4 1 3 5 7 8 11 9 9 11 8 6 10 10 10 13 12
3 7 9 8 8 5 6 6 5 6 6 6 5 3 2 4 5 7 6 3 3 3 2 2 2 1 2 2 2 4 2 5 7 8 18 13 13 10 10 10 12 11 10 11
3 2 5 5 4 2 2 3 2 6 5 4 3 6 6 6 7 7 6 4 3 2 1 0 1 2 1 2 3 0 3 6 6 9 12 11 12 12 8 9 8 9 9 10
4 4 6 3 3 2 5 5 2 2 5 8 6 4 6 9 8 6 6 5 3 3 2 3 3 2 3 3 4 4 5 8 6 7 7 8 9 11 9 10 8 8 6 6
3 7 5 6 10 5 6 4 4 5 3 6 6 5 5 5 7 8 5 7 4 3 3 4 4 5 5 4 5 4 6 6 7 6 5 5 6 5 7 7 8 16 11 15
Wind_Direction
356 79 218 217 172 153 146 244 246 231 169 149 221 241 218 165 199 222 208 205 174 177 175 170 171 173 179 181 176 177 176 177 155 164 150 129 203 162 215 220 231 226 209 166
20 241 238 229 177 182 229 252 253 320 160 149 197 252 232 170 205 200 214 202 182 153 166 174 171 170 180 183 189 182 191 172 177 162 163 164 153 189 176 155 248 239 196 189
166 235 105 184 255 203 231 215 202 206 135 208 90 312 257 211 176 171 221 205 213 180 171 177 172 180 180 184 188 193 187 181 183 164 128 97 69 53 57 297 238 241 201 213
225 268 223 214 250 136 266 236 212 148 119 206 142 265 283 206 223 203 208 205 204 199 177 176 180 182 187 194 191 191 187 179 185 158 153 150 166 165 208 205 209 208 206 215
250 291 246 189 225 155 240 240 178 156 146 99 5 35 270 111 246 222 219 209 206 199 178 183 183 188 190 184 189 190 181 177 176 171 169 165 173 193 178 192 203 215 216 224
239 250 204 214 219 170 150 69 41 54 71 341 224 162 282 205 219 246 218 217 203 192 167 187 185 187 189 187 192 187 182 183 178 184 177 179 183 187 186 204 213 216 225 210
316 248 269 190 132 38 75 62 15 24 14 228 188 104 243 272 264 244 212 203 197 189 175 170 181 187 184 189 190 191 184 192 183 192 184 184 184 178 199 202 201 205 211 228
162 310 184 181 167 176 173 145 152 176 203 249 51 226 265 294 311 332 120 151 180 169 192 182 180 184 187 191 190 191 192 194 187 192 194 192 190 186 192 197 196 213 201 211
156 267 305 202 158 133 186 104 197 100 6 51 259 296 330 345 8 35 68 140 185 185 190 197 179 185 185 187 188 198 194 201 186 197 194 193 189 188 197 197 193 201 207 219
195 304 265 88 92 45 147 164 75 10 153 257 304 271 227 317 1 358 346 326 216 189 187 196 182 183 194 187 179 211 204 200 195 193 202 198 191 196 197 190 200 200 210 221
137 117 308 47 75 180 2 103 53 113 132 158 148 266 214 198 231 301 330 350 5 233 185 199 188 173 185 192 213 212 200 193 206 197 197 203 200 197 201 200 201 197 200 215
179 146 139 181 285 315 137 133 118 131 242 134 159 261 269 207 189 131 165 24 59 104 100 85 117 95 154 210 207 211 209 191 203 188 215 204 198 198 203 208 210 188 201 204
182 7 64 349 5 6 67 62 124 120 89 193 136 252 316 315 155 173 144 70 58 116 132 153 150 159 165 170 190 200 204 211 198 189 197 218 208 203 208 212 210 195 187 187
92 115 145 181 192 164 297 354 64 115 117 170 216 210 207 257 232 204 107 175 155 97 121 158 176 197 206 194 180 175 177 168 181 184 193 220 216 211 211 202 198 202 200 193
101 126 155 158 157 192 189 265 200 176 181 153 224 182 195 208 214 239 151 161 151 156 86 52 198 247 234 217 218 243 225 189 187 188 207 214 208 207 200 192 202 205 200 211
26 129 107 101 233 168 217 123 94 86 123 99 123 90 188 238 196 237 225 192 178 176 141 349 359 28 350 284 282 243 222 221 213 206 198 178 182 205 193 194 199 203 212 209
119 134 103 232 340 91 5 238 119 125 86 141 157 224 164 218 230 233 239 268 254 239 118 80 33 11 28 8 326 305 262 227 215 216 202 175 172 204 184 180 186 204 207 194
130 99 86 166 38 165 241 280 160 134 124 276 208 234 218 200 223 179 188 188 221 213 185 81 33 4 347 333 337 325 305 260 233 221 204 191 176 190 180 216 216 207 191 191
129 117 93 134 167 275 281 231 166 167 212 221 192 186 177 146 166 242 205 201 199 179 142 13 22 42 331 324 351 347 343 306 256 242 230 224 214 188 182 199 205 204 167 141
55 69 110 140 143 198 235 233 131 104 279 216 209 211 182 157 184 262 182 183 156 148 118 95 359 331 304 327 324 332 345 328 327 252 230 222 212 210 214 198 181 154 146 124
82 41 146 141 160 282 245 189 112 98 239 192 198 220 171 194 207 172 126 122 115 90 125 132 162 287 301 302 289 354 343 343 331 319 217 196 186 137 127 123 131 132 126 114
150 138 169 101 104 235 170 87 159 213 188 181 204 219 228 245 93 124 121 126 128 121 121 240 209 235 304 294 168 48 359 351 344 4 42 184 138 116 111 111 107 119 114 113
116 171 171 160 205 230 200 178 209 162 166 206 172 163 119 130 161 141 135 125 97 129 191 238 242 167 302 310 163 104 330 17 357 14 63 55 70 83 103 109 100 98 106 113
32 159 99 110 304 241 278 315 261 190 201 128 99 126 155 139 119 105 102 93 99 97 47 293 150 112 65 11 67 163 91 37 10 35 55 65 57 58 54 98 95 108 104 108
193 119 122 71 333 352 304 260 299 58 80 88 106 136 145 121 114 122 127 105 105 95 67 65 63 80 65 43 59 53 80 87 47 33 49 66 75 77 70 45 36 63 58 82
194 161 139 202 199 166 216 174 140 144 126 142 138 130 147 132 143 147 147 135 126 112 85 70 82 76 61 61 68 61 82 105 99 72 55 60 76 60 73 72 62 35 61 80